Flag for Switzerland Weather past 2 weeks in Uster, Zurich, Switzerland

Now
48 °F

Cool.


Feels Like: 46 °F
Forecast: 37 / 67 °F
Wind: 5 mph from East

Location: Zurich Town / Ville.

Current Time: Sep 23, 2014 at 10:48:20 AM

Latest Report: Sep 23, 2014 at 10:00 AM


Visibility: N/A

Pressure: 30.20 "Hg

Humidity: 75%

Dew point: 40 °F

Location of UsterLocation

Historic Weather in Uster — Graph

°F

Uster temperature yesterday

Maximum temperature yesterday: 58 °F (at 2:00 PM)
Minimum temperature yesterday: 49 °F (at 11:00 PM)
Average temperature yesterday: 53 °F

Past Weeks' High & Low Weather Summary

 TemperatureHumidityPressure
High80 °F (Sep 8, 3:00 PM)100% (Sep 16, 7:00 AM)30.22 "Hg (Sep 16, 7:00 AM)
Low41 °F (Sep 23, 6:00 AM)49% (Sep 8, 4:00 PM)29.81 "Hg (Sep 17, 5:00 PM)
Average60 °F83%30.00 "Hg
* Reported Sep 8 9:00 AM — Sep 23 9:00 AM, Uster, Weather by CustomWeather, © 2014

Note: Actual official high and low records may vary slightly from our data, if they occured in-between our weather recording intervals... More about our weather records

Advertising

Uster weather history for previous 24 hours

 ConditionsComfort  
Time TempWeatherWind HumidityBarometerVisibility
9:00 AM
Sep 23
44 °FQuite cool.2 mph88%30.22 "HgN/A
8:00 AM41 °FQuite cool.3 mph94%30.22 "HgN/A
7:00 AM42 °FQuite cool.7 mph92%30.21 "HgN/A
6:00 AM41 °FQuite cool.5 mph95%30.20 "HgN/A
5:00 AM42 °FQuite cool.1 mph92%30.20 "HgN/A
4:00 AM43 °FQuite cool.5 mph89%30.19 "HgN/A
3:00 AM44 °FQuite cool.8 mph86%30.19 "HgN/A
2:00 AM45 °FCool.9 mph83%30.17 "HgN/A
1:00 AM46 °FCool.9 mph86%30.18 "HgN/A
12:00 AM47 °FCool.8 mph85%30.18 "HgN/A
11:00 PM
Sep 22
49 °FCool.6 mph79%30.18 "HgN/A
10:00 PM49 °FCool.3 mph83%30.19 "HgN/A
9:00 PM51 °FCool.3 mph78%30.19 "HgN/A
8:00 PM50 °FCool.3 mph80%30.17 "HgN/A
7:00 PM53 °FCool.3 mph69%30.14 "HgN/A
6:00 PM55 °FCool.5 mph62%30.12 "HgN/A
5:00 PM58 °FRefreshingly cool.6 mph54%30.08 "HgN/A
4:00 PM58 °FRefreshingly cool.8 mph55%30.06 "HgN/A
3:00 PM57 °FCool.5 mph63%30.07 "HgN/A
2:00 PM58 °FPartly sunny.3 mph59%30.09 "HgN/A
1:00 PM54 °FCool.3 mph71%30.14 "HgN/A
12:00 PM54 °FCool.2 mph76%30.14 "HgN/A
11:00 AM54 °FCool.3 mph90%30.15 "HgN/A
10:00 AM53 °FCool.2 mph89%30.15 "HgN/A
Weather by CustomWeather, © 2014

See weather overviewHow to use our weather pages